Regional Weather Roundup
Issued by NWS Boston, MA

Home | Current Version | Previous Version | Text Only | Print | Product List | Glossary On
Versions: 1 2 3 4 5 6 7 8 9 10 11 12 13 14 15 16 17 18 19 20 21 22 23 24 25 26 27
000
ASUS41 KBOX 191010
RWRBOX

REGIONAL WEATHER ROUNDUP
NATIONAL WEATHER SERVICE BOSTON/NORTON MA
600 AM EDT THU APR 19 2018

NOTE:  "FAIR" INDICATES FEW OR NO CLOUDS BELOW 12,000 FEET WITH NO
SIGNIFICANT WEATHER AND/OR OBSTRUCTIONS TO VISIBILITY.

MAZALL-191100-
EASTERN MASSACHUSETTS

CITY           SKY/WX    TMP DP  RH WIND       PRES   REMARKS
BOSTON         CLOUDY    43  30  60 W7        29.75R
BEVERLY        CLOUDY    41  30  65 SW5       29.72R
LAWRENCE       CLOUDY    43  29  57 W6        29.73R
BEDFORD        CLOUDY    40  29  64 SW3       29.71R
BLUE HILL        N/A     38  29  70 W8        29.69S
NORWOOD        CLOUDY    43  31  62 SW3       29.73R
MARSHFIELD     CLOUDY    43  32  65 CALM      29.73S
PLYMOUTH       CLOUDY    41  34  76 CALM      29.72S
TAUNTON        CLOUDY    41  34  76 CALM      29.72S
NEW BEDFORD    CLOUDY    41  37  86 CALM      29.71F
$$

MAZALL-191100-
CAPE COD AND THE ISLANDS

CITY           SKY/WX    TMP DP  RH WIND       PRES   REMARKS
FALMOUTH       CLOUDY    41  39  93 CALM      29.72
HYANNIS        LGT RAIN  43  39  86 S6        29.70F
CHATHAM        CLOUDY    44  39  82 S3        29.74F
PROVINCETOWN   CLOUDY    42  34  73 SW6       29.73F
NANTUCKET      LGT RAIN  42  42 100 S3        29.73F
MARTHAS VNYRD  LGT RAIN  42  41  96 S5        29.71F FOG
$$

MAZALL-191100-
CENTRAL AND WESTERN MASSACHUSETTS

CITY           SKY/WX    TMP DP  RH WIND       PRES   REMARKS
WORCESTER      CLOUDY    35  28  75 W5        29.70R WCI  31
FITCHBURG      CLOUDY    43  30  60 SW5       29.73R
ORANGE         CLOUDY    39  29  67 CALM      29.72R
SPRINGFIELD    FAIR      37  31  79 CALM      29.73R
WESTFIELD      CLOUDY    36  32  85 S3        29.74R
NORTH ADAMS    FLURRIES  36  28  73 W5        29.71F
PITTSFIELD     LGT SNOW  34  28  79 NW3       29.68F
$$

RIZALL-191100-
RHODE ISLAND

CITY           SKY/WX    TMP DP  RH WIND       PRES   REMARKS
PROVIDENCE     LGT RAIN  42  36  79 N6        29.72F
NEWPORT        LGT RAIN  41  39  93 SE3       29.70F FOG
BLOCK ISLAND   CLOUDY    42  40  92 CALM      29.73R
SMITHFIELD     LGT RAIN  38  32  79 MISG      29.72S
WESTERLY       LGT RAIN  42  41  96 CALM      29.74R FOG
$$

CTZALL-191100-
CONNECTICUT

CITY           SKY/WX    TMP DP  RH WIND       PRES   REMARKS
BRADLEY INTL   LGT RAIN  39  32  76 N7        29.75R
HARTFORD       LGT RAIN  41  34  76 NW5       29.75R
BRIDGEPORT     LGT RAIN  41  37  86 N5        29.75R
DANBURY        LGT RAIN  37  35  92 S5        29.73F
GROTON         RAIN      42  41  96 NW3       29.75R FOG
NEW HAVEN      RAIN      41  37  86 E3        29.74R FOG
CHESTER        RAIN      39  37  93 MISG      29.74R
MERIDEN        RAIN      38  35  89 CALM      29.73R
WILLIMANTIC    LGT RAIN  38  33  82 NE6       29.74R
OXFORD         LGT RAIN  37  34  89 CALM      29.72R
$$

MEZ002-015-021-024-NHZ003-005-008-011-012-014-VTZ005-008-191100-
NORTHERN NEW ENGLAND

CITY           SKY/WX    TMP DP  RH WIND       PRES   REMARKS
PORTLAND ME    MOCLDY    40  29  64 SW7       29.70R
BANGOR ME      CLOUDY    41  30  65 W6        29.63R
CONCORD NH     CLOUDY    38  29  70 W5        29.70S
MANCHESTER NH  CLOUDY    43  28  55 NW3       29.70R
NASHUA NH      CLOUDY    40  30  67 CALM      29.72R
PORTSMOUTH NH  CLOUDY    40  28  63 W8        29.69
JAFFREY NH     CLOUDY    37  29  72 W6        29.70R
KEENE NH       CLOUDY    38  30  73 S3        29.71S
BURLINGTON VT  CLOUDY    38  29  70 CALM      29.68S
MT. WASHINGTON FOG       16  16 100 W36         N/A  VSB 0   WCI  -6
$$

NYZ052-076-191100-
EASTERN NEW YORK

CITY           SKY/WX    TMP DP  RH WIND       PRES   REMARKS
ALBANY         FLURRIES  36  30  79 W7        29.74S WCI  30
NEW YORK CITY  CLOUDY    44  35  70 N8        29.73R
$$

ANZALL-191100-
MARINE OBSERVATIONS

STATION/POSITION TIME  TEMP    WIND        PRES    VSBY  WAVE
                       AIR SEA DIR/SP/G                  HT/PER
                 (UTC) (F)     (DEG/KT/KT) (MB)    (MI)  (FT/S)
BOSTON BUOY      0950   42 43  220/  8/ 10 1005.7R         1/10
BUZZARDS BAY     0900   42     200/  7/  8 1007.5F
NANTUCKET SOUND  0850   42 42  220/  8/ 10 1007.5          1/ 3
MASS BAY-STELLWA 0904   41 42              1004.8R         2/11
ISLE OF SHOALS   1000   41     250/ 11/ 12 1005.8R
S OF BLOCK IS    0943      41                N/A           3/ 8
$$

......................KEY.........................
  SKY/WX - SKY CONDITION/PRESENT WEATHER
  TMP    - TEMPERATURE IN FAHRENHEIT
  DWPT   - DEWPOINT IN FAHRENHEIT
  RH     - RELATIVE HUMIDITY IN PERCENT
  WIND   - DIRECTION AND SPEED IN MPH
  PRES   - MEAN SEA LEVEL PRESSURE IN INCHES OF HG
  WCI    - WIND CHILL INDEX
  VSB    - VISIBILITY IN MILES
  HX     - HEAT INDEX
  TC     - TEMPERATURE IN CELSIUS
  VRB    - VARIABLE WIND DIRECTION
  N/A    - NOT AVAILABLE




USA.gov is the U.S. government's official web portal to all federal, state and local government web resources and services.